Bryce, UT

4:42 AM MST on December 03, 2016 (GMT -0700)
Bryce Canyon

Weather History for KBCE - April, 2013

Change the Weather History Date:

Tuesday, April 9, 2013

  Actual Average Record
Temperature  
Mean Temperature 24 °F -  
Max Temperature 30 °F 52 °F 69 °F (1960)
Min Temperature 21 °F 20 °F 6 °F (1975)
Degree Days  
Heating Degree Days 40    
Moisture  
Dew Point 20 °F    
Average Humidity 82    
Maximum Humidity 93    
Minimum Humidity 72    
Precipitation  
Precipitation 0.02 in - - ()
Sea Level Pressure  
Sea Level Pressure 29.66 in    
Wind  
Wind Speed 22 mph (NW)    
Max Wind Speed 30 mph    
Max Gust Speed 40 mph    
Visibility 7 miles    
Events Snow    
Averages and records for this station are not official NWS values.
T = Trace of Precipitation, MM = Missing Value Source: NWS Daily Summary

Daily Weather History Graph

Daily Weather History Graph

Search for Another Location

Airport or City:

Trip Planner

Search our weather history database for the weather conditions in past years. The results will help you decide how hot, cold, wet, or windy it might be!

Date:

Astronomy

Apr. 09, 2013 Rise Set
Actual Time 7:01 AM MDT 7:59 PM MDT
Civil Twilight 6:34 AM MDT 8:25 PM MDT
Nautical Twilight 6:03 AM MDT 8:57 PM MDT
Astronomical Twilight 5:30 AM MDT 9:30 PM MDT
Moon 6:25 AM MDT (4/9) 7:38 PM MDT (4/9)
Length of Visible Light 13h 50m
Length of Day
12h 57m
Waning Crescent, 0% of the Moon is Illuminated
Apr 9
Waning Crescent
Apr 10
New
Apr 18
First Quarter
Apr 25
Full
May 2
Last Quarter

Hourly Weather History & Observations

Time (MDT) Temp. Windchill Dew Point Humidity Pressure Visibility Wind Dir Wind Speed Gust Speed Precip Events Conditions
12:28 AM 26.6 °F 12.4 °F 24.8 °F 93% 29.53 in 5.0 mi WNW 21.9 mph 27.6 mph 0.00 in Snow Light Snow
12:53 AM 27.0 °F 12.2 °F 24.1 °F 89% 29.43 in 5.0 mi WNW 24.2 mph 33.4 mph 0.00 in Snow Light Snow
1:02 AM 26.6 °F 12.7 °F 24.8 °F 93% 29.53 in 6.0 mi NW 20.7 mph 29.9 mph 0.00 in Snow Light Snow
1:22 AM 26.6 °F 13.4 °F 24.8 °F 93% 29.53 in 8.0 mi NW 18.4 mph 29.9 mph 0.00 in Snow Light Snow
1:29 AM 26.6 °F 12.0 °F 24.8 °F 93% 29.53 in 8.0 mi NW 23.0 mph 27.6 mph 0.00 in Snow Light Snow
1:53 AM 27.0 °F 13.9 °F 24.1 °F 89% 29.44 in 10.0 mi WNW 18.4 mph 27.6 mph 0.00 in   Scattered Clouds
2:53 AM 27.0 °F 14.3 °F 23.0 °F 85% 29.44 in 9.0 mi WNW 17.3 mph 27.6 mph N/A   Overcast
3:31 AM 24.8 °F 10.3 °F 21.2 °F 86% 29.54 in 9.0 mi WNW 20.7 mph - N/A   Overcast
3:43 AM 24.8 °F 11.5 °F 21.2 °F 86% 29.55 in 10.0 mi WNW 17.3 mph 27.6 mph N/A   Overcast
3:53 AM 25.0 °F 10.9 °F 21.9 °F 88% 29.46 in 10.0 mi WNW 19.6 mph 25.3 mph N/A   Overcast
4:12 AM 24.8 °F 11.5 °F 21.2 °F 86% 29.55 in 6.0 mi WNW 17.3 mph - 0.00 in Snow Light Snow
4:46 AM 24.8 °F 10.7 °F 19.4 °F 80% 29.57 in 8.0 mi NW 19.6 mph 31.1 mph 0.00 in   Overcast
4:53 AM 23.0 °F 7.2 °F 19.9 °F 88% 29.50 in 7.0 mi WNW 23.0 mph 29.9 mph 0.00 in Snow Light Snow
5:15 AM 23.0 °F 8.7 °F 19.4 °F 86% 29.58 in 7.0 mi WNW 18.4 mph 25.3 mph 0.00 in Snow Light Snow
5:37 AM 23.0 °F 8.7 °F 19.4 °F 86% 29.60 in 7.0 mi NW 18.4 mph 24.2 mph 0.00 in Snow Light Snow
5:53 AM 23.0 °F 9.6 °F 19.0 °F 85% 29.54 in 5.0 mi NW 16.1 mph 23.0 mph 0.00 in Snow Light Snow
6:07 AM 23.0 °F 7.6 °F 19.4 °F 86% 29.60 in 4.0 mi WNW 21.9 mph 31.1 mph 0.00 in Snow Light Snow
6:51 AM 21.2 °F 4.5 °F 19.4 °F 93% 29.60 in 6.0 mi WNW 24.2 mph 33.4 mph 0.00 in Snow Light Snow
6:53 AM 21.9 °F 6.2 °F 19.0 °F 89% 29.55 in 6.0 mi WNW 21.9 mph 33.4 mph 0.00 in Snow Light Snow
7:03 AM 21.2 °F 3.0 °F 17.6 °F 86% 29.61 in 4.0 mi WNW 29.9 mph 36.8 mph 0.00 in Snow Light Snow
7:12 AM 21.2 °F 4.5 °F 17.6 °F 86% 29.61 in 4.0 mi WNW 24.2 mph 40.3 mph 0.00 in   Overcast
7:19 AM 21.2 °F 3.9 °F 17.6 °F 86% 29.61 in 9.0 mi WNW 26.5 mph 36.8 mph 0.00 in   Overcast
7:53 AM 21.9 °F 6.2 °F 18.0 °F 85% 29.57 in 4.0 mi NW 21.9 mph 32.2 mph 0.00 in Snow Light Snow
8:03 AM 21.2 °F 4.5 °F 17.6 °F 86% 29.63 in 2.0 mi NW 24.2 mph 31.1 mph 0.00 in Snow Light Snow
8:16 AM 21.2 °F 6.0 °F 17.6 °F 86% 29.65 in 4.0 mi NW 19.6 mph 29.9 mph 0.00 in Snow Light Snow
8:34 AM 21.2 °F 6.0 °F 17.6 °F 86% 29.65 in 7.0 mi NW 19.6 mph 27.6 mph 0.00 in Snow Light Snow
8:53 AM 24.1 °F 9.0 °F 18.0 °F 77% 29.60 in 5.0 mi NW 21.9 mph 29.9 mph 0.00 in Snow Light Snow
9:02 AM 24.8 °F 9.3 °F 19.4 °F 80% 29.66 in 5.0 mi WNW 24.2 mph 31.1 mph 0.02 in Snow Light Snow
9:22 AM 24.8 °F 9.6 °F 17.6 °F 74% 29.67 in 7.0 mi WNW 23.0 mph 28.8 mph 0.02 in Snow Light Snow
9:35 AM 24.8 °F 7.9 °F 19.4 °F 80% 29.67 in 6.0 mi NW 29.9 mph 34.5 mph 0.02 in Snow Light Snow
9:53 AM 25.0 °F 8.4 °F 19.0 °F 78% 29.61 in 6.0 mi NW 28.8 mph 36.8 mph 0.02 in Snow Light Snow
10:44 AM 26.6 °F 10.8 °F 19.4 °F 74% 29.68 in 3.0 mi WNW 27.6 mph 36.8 mph 0.00 in Snow Light Snow
10:53 AM 25.0 °F 8.4 °F 19.0 °F 78% 29.64 in 4.0 mi WNW 28.8 mph 39.1 mph 0.00 in Snow Light Snow
11:50 AM 26.6 °F 10.6 °F 19.4 °F 74% 29.71 in 4.0 mi WNW 28.8 mph 36.8 mph 0.00 in Snow Light Snow
11:53 AM 25.0 °F 8.6 °F 19.0 °F 78% 29.66 in 4.0 mi WNW 27.6 mph 36.8 mph 0.00 in Snow Light Snow
12:04 PM 24.8 °F 8.7 °F 19.4 °F 80% 29.72 in 3.0 mi NW 26.5 mph 34.5 mph 0.00 in Snow Light Snow
12:14 PM 24.8 °F 8.1 °F 19.4 °F 80% 29.72 in 2.5 mi WNW 28.8 mph 39.1 mph 0.00 in Snow Light Snow
12:37 PM 24.8 °F 9.3 °F 19.4 °F 80% 29.73 in 1.5 mi WNW 24.2 mph 38.0 mph 0.00 in Snow Light Snow
12:48 PM 24.8 °F 8.4 °F 19.4 °F 80% 29.74 in 3.0 mi WNW 27.6 mph 36.8 mph 0.00 in Snow Light Snow
12:49 PM 25.0 °F 8.4 °F 19.0 °F 78% 29.69 in 3.0 mi WNW 28.8 mph 36.8 mph 0.00 in Snow Light Snow
1:53 PM 26.1 °F 11.3 °F 19.0 °F 75% 29.69 in 6.0 mi WNW 23.0 mph 39.1 mph 0.00 in Snow Light Snow
2:53 PM 26.1 °F 11.3 °F 19.0 °F 75% 29.71 in 9.0 mi NW 23.0 mph 33.4 mph 0.00 in Snow Light Snow
3:53 PM 28.0 °F 13.9 °F 19.9 °F 72% 29.74 in 10.0 mi WNW 23.0 mph 29.9 mph 0.00 in   Overcast
4:53 PM 28.9 °F 15.4 °F 21.0 °F 72% 29.76 in 7.0 mi NW 21.9 mph 32.2 mph 0.00 in Snow Light Snow
5:53 PM 26.1 °F 11.3 °F 19.9 °F 78% 29.81 in 10.0 mi WNW 23.0 mph 29.9 mph 0.00 in   Overcast
6:43 PM 26.6 °F 12.7 °F 19.4 °F 74% 29.87 in 10.0 mi WNW 20.7 mph 29.9 mph N/A   Overcast
6:53 PM 26.1 °F 12.7 °F 19.0 °F 75% 29.85 in 10.0 mi NW 18.4 mph 28.8 mph N/A   Overcast
7:22 PM 24.8 °F 12.4 °F 19.4 °F 80% 29.89 in 10.0 mi NW 15.0 mph - N/A   Overcast
7:53 PM 24.1 °F 10.6 °F 19.0 °F 81% 29.90 in 10.0 mi NW 17.3 mph 25.3 mph N/A   Overcast
8:53 PM 23.0 °F 10.1 °F 18.0 °F 81% 29.92 in 10.0 mi NW 15.0 mph - N/A   Overcast
9:53 PM 21.9 °F 9.2 °F 17.1 °F 82% 29.97 in 10.0 mi NW 13.8 mph 21.9 mph N/A   Partly Cloudy
10:53 PM 21.0 °F 8.6 °F 15.1 °F 78% 29.99 in 10.0 mi NW 12.7 mph - N/A   Partly Cloudy
11:53 PM 21.0 °F 8.1 °F 16.0 °F 81% 30.00 in 10.0 mi WNW 13.8 mph - N/A   Clear